Theta_e
310 312 312 314 315 316 317 317 320 319 320 320 321 320 319 317 319 321 321 320 319 321 323 324 326 327 327 327 327 327 327 327 325 323 321 320 320 319 319 319 320 321 320 320
308 309 311 311 309 308 315 317 317 319 319 318 320 319 318 318 319 318 319 316 316 317 320 321 321 323 325 326 326 326 327 326 325 325 324 323 322 322 321 320 320 319 320 321
309 308 307 307 310 311 316 315 316 319 318 318 320 319 316 318 316 318 314 312 312 315 317 318 320 321 321 322 323 324 324 323 324 324 324 324 324 324 323 322 323 322 321 321
308 307 306 307 307 315 316 315 315 316 318 316 315 313 312 314 313 310 308 309 309 311 313 315 316 318 320 321 322 323 324 324 323 323 323 323 324 324 324 324 324 324 323 323
306 307 305 306 310 311 311 314 317 318 316 315 313 311 309 307 307 305 305 306 308 310 311 312 313 313 315 316 318 319 321 322 322 322 322 323 323 323 323 323 324 324 324 324
304 307 305 308 312 312 313 317 315 316 317 316 315 314 308 304 304 306 303 304 306 307 308 310 310 310 312 312 312 313 313 315 317 319 319 320 321 322 323 323 323 323 323 324
306 308 306 308 310 312 313 312 312 313 313 313 310 309 303 302 301 303 307 304 304 305 307 307 308 309 310 309 309 308 309 310 311 312 313 315 317 318 320 320 321 322 323 323
306 308 307 308 311 313 310 308 308 307 307 306 304 302 300 300 300 301 301 304 304 302 302 304 305 306 306 306 306 306 308 308 308 309 309 310 312 314 316 318 318 318 320 321
305 305 308 307 307 306 305 303 302 303 304 303 301 298 297 296 296 296 297 298 298 300 300 300 302 303 304 304 304 304 305 307 307 306 307 308 308 309 310 312 313 313 313 312
309 309 308 306 304 302 302 302 302 300 301 299 298 298 296 295 295 295 295 296 297 298 299 300 301 301 302 303 303 303 304 304 305 306 306 305 306 305 305 306 305 304 304 304
307 305 303 301 301 300 300 297 299 300 299 296 294 293 295 294 293 293 294 295 296 296 297 297 298 299 300 301 301 302 302 300 299 302 303 303 302 302 302 301 299 299 298 297
303 298 301 299 298 298 297 296 296 297 296 295 294 293 292 289 289 291 292 292 292 292 292 293 294 295 297 297 298 298 298 297 296 296 296 296 293 293 294 295 293 291 292 291
297 297 296 295 296 296 295 293 293 293 292 291 290 289 289 288 287 287 289 289 289 288 288 289 290 291 292 293 294 295 295 294 293 293 293 292 291 290 290 289 291 289 287 287
295 297 295 293 292 293 293 292 291 291 290 288 288 288 287 284 284 284 285 285 286 287 287 287 288 288 288 288 289 290 291 291 290 289 289 288 287 287 287 287 287 286 286 286
290 291 291 291 292 292 291 291 289 287 286 286 285 284 283 284 284 284 284 284 284 285 285 286 286 286 286 287 288 288 288 288 288 287 287 287 286 286 286 286 285 285 285 285
289 289 289 289 289 288 288 287 285 283 283 283 282 282 282 282 282 282 283 283 285 284 284 284 285 284 285 285 286 287 287 286 286 286 285 285 285 285 285 285 284 284 284 283
288 286 286 287 286 285 284 282 282 281 282 282 281 281 281 281 281 281 281 281 282 282 283 283 283 283 284 284 285 285 285 285 284 285 285 284 284 284 284 283 283 283 282 281
284 283 284 284 283 282 281 280 281 281 281 281 280 280 280 280 280 279 280 280 280 281 282 281 281 282 283 283 283 284 284 284 284 284 283 283 283 282 282 282 281 281 280 280
281 281 281 282 282 281 280 280 280 280 280 280 280 280 279 279 279 279 279 279 280 280 280 280 280 281 282 282 282 282 282 282 282 282 282 281 281 281 281 280 280 278 277 277
279 279 279 279 279 278 278 278 278 278 278 278 278 278 278 278 277 277 278 279 278 277 278 278 279 280 280 280 280 280 280 280 280 280 279 279 279 279 278 277 275 274 274 273
280 279 279 279 279 279 278 278 278 278 277 277 277 277 277 277 277 276 277 277 275 274 274 274 274 275 275 275 276 276 277 277 277 277 276 276 275 274 274 273 273 273 272 272
279 279 279 279 279 278 277 277 277 277 277 277 277 276 276 276 275 274 274 274 273 273 273 273 274 273 273 273 274 274 274 274 274 274 273 273 273 273 272 272 272 271 271 271
279 279 278 278 278 278 277 277 277 277 277 276 276 276 274 273 273 272 272 272 271 272 272 272 272 272 272 272 272 272 272 272 272 272 272 271 271 271 271 271 270 270 270 270
279 278 278 278 278 277 277 277 276 276 275 274 273 273 272 272 272 271 271 271 271 271 271 271 271 271 271 271 271 271 271 271 271 270 270 270 270 270 270 270 269 269 269 269
279 278 278 277 277 277 276 276 276 275 274 274 273 272 271 271 270 270 270 270 270 270 270 270 270 270 270 270 270 270 270 270 270 270 269 269 269 269 269 269 269 269 268 268
278 278 278 277 277 277 276 276 275 275 274 273 272 271 270 270 270 269 269 269 269 269 269 269 269 269 269 269 269 269 269 269 269 269 269 269 269 269 269 268 268 268 268 268
278 277 277 277 277 276 276 276 275 274 273 272 271 270 269 269 269 269 268 268 268 268 268 268 268 268 268 268 268 268 268 268 268 268 268 268 268 268 268 268 268 268 267 267
Wind_Speed
5 8 5 5 10 12 9 8 6 5 5 2 0 7 5 9 26 21 21 27 28 28 26 22 15 6 5 10 14 18 23 25 25 23 25 26 27 26 27 29 31 32 34 36
4 5 2 5 14 15 12 9 11 14 16 6 7 8 10 6 15 11 16 23 23 24 26 25 18 17 7 9 13 14 14 20 23 23 24 26 27 29 29 30 31 32 37 38
4 4 7 6 7 10 3 4 2 5 5 6 7 8 8 2 6 15 18 20 21 24 23 20 19 15 13 9 4 4 12 13 14 19 23 25 26 30 32 33 33 36 37 37
3 3 3 6 11 11 6 5 16 15 6 15 17 19 19 17 16 17 15 16 16 19 20 19 17 14 9 7 8 7 6 11 11 13 17 21 21 24 27 32 37 41 42 42
2 3 8 9 4 3 10 8 6 7 11 18 23 24 17 17 19 16 16 15 16 17 17 16 17 14 12 13 11 7 5 2 3 5 8 13 20 25 30 30 31 33 35 42
1 2 3 4 3 15 11 3 2 8 10 6 2 5 4 8 13 16 15 14 15 15 14 13 15 13 11 13 13 13 11 9 6 1 5 6 10 14 20 28 34 38 39 36
6 6 6 4 11 13 4 3 9 10 14 5 3 9 12 9 12 13 9 12 12 13 15 15 12 11 11 12 13 13 12 11 10 10 9 8 8 9 10 12 18 28 30 35
3 4 7 15 4 1 4 16 15 17 18 23 20 17 12 10 11 12 11 11 12 13 14 13 12 11 12 12 12 11 11 11 11 11 11 11 11 10 9 8 7 11 18 26
5 3 8 19 15 18 18 20 20 19 17 15 16 14 11 10 11 12 15 14 13 13 12 13 13 14 13 13 11 10 10 9 10 11 12 11 11 11 10 9 7 5 3 7
3 7 9 14 15 19 17 16 16 16 16 14 14 10 10 9 10 12 13 14 13 12 12 12 12 12 12 10 9 9 10 11 9 10 11 12 12 14 13 10 11 9 7 6
2 6 6 18 14 12 15 11 12 10 13 11 8 11 10 8 8 10 12 13 13 13 13 12 12 11 10 8 7 8 8 8 7 8 9 10 11 14 15 15 12 10 10 8
3 11 6 8 11 10 14 13 13 12 10 10 7 8 7 6 7 8 9 10 9 9 9 10 11 11 10 10 8 7 5 4 5 7 8 9 13 14 14 12 10 14 14 15
5 12 16 14 17 14 13 11 13 12 11 11 10 7 6 7 7 7 8 9 9 10 10 10 11 11 11 10 9 6 5 5 5 6 7 8 11 14 17 17 15 18 20 18
13 1 9 16 9 10 10 10 10 10 11 11 10 9 6 5 6 7 10 10 10 10 9 11 11 12 13 11 10 8 7 5 5 7 9 11 14 16 17 18 19 20 18 16
13 11 7 4 4 7 7 7 9 10 9 9 9 7 5 7 9 10 9 10 10 9 11 11 11 13 13 12 10 9 8 8 8 9 10 10 11 13 15 16 18 18 14 13
8 7 7 6 6 7 8 8 8 8 8 9 7 9 9 9 10 10 10 10 8 13 14 13 13 14 12 11 11 9 9 9 9 10 11 12 13 13 14 14 15 14 14 14
1 6 8 6 7 8 9 8 6 5 4 2 5 7 6 5 7 9 10 11 11 11 11 12 13 11 11 10 9 9 9 9 9 10 11 11 11 11 11 10 11 11 12 10
4 3 2 1 2 4 6 6 6 5 4 3 3 4 3 4 7 8 8 8 8 8 9 11 11 9 8 9 8 8 7 7 7 8 9 9 9 8 8 8 8 8 8 7
4 4 3 2 1 1 2 3 5 5 4 2 1 2 4 5 5 5 5 4 4 5 9 9 8 7 7 8 7 6 5 5 5 6 6 6 5 6 5 4 5 5 6 5
6 5 3 4 4 5 7 7 7 8 8 6 5 5 5 5 5 4 4 5 7 8 8 7 6 5 5 4 4 3 3 3 3 3 3 3 3 4 4 4 4 5 5 5
9 9 10 10 10 10 9 8 6 7 7 5 5 6 6 6 5 5 4 4 6 7 8 8 6 6 6 5 4 3 2 2 2 2 3 3 3 4 4 5 5 5 5 4
9 8 10 9 9 11 10 7 6 6 5 5 5 6 6 6 6 5 5 6 6 7 7 7 7 7 7 6 5 4 4 4 4 4 4 4 3 3 3 4 4 4 4 4
9 9 9 8 7 8 7 6 5 5 6 6 7 7 6 6 5 5 4 5 5 6 7 7 6 6 6 6 6 5 5 4 4 3 3 2 2 2 3 3 3 3 3 4
9 9 8 7 6 5 4 5 5 6 7 7 7 7 6 5 4 3 4 5 4 5 5 5 6 6 5 4 4 4 4 4 4 3 3 3 3 3 2 2 3 3 4 4
7 6 5 5 4 3 3 3 4 7 8 9 9 7 5 4 3 3 3 4 5 4 4 4 5 5 5 5 5 5 4 4 3 3 3 3 3 3 4 4 4 5 5 6
1 1 1 2 3 5 6 6 6 7 7 8 8 6 4 3 3 3 3 4 5 5 5 5 5 5 5 5 4 5 4 4 4 4 4 4 5 6 6 5 6 7 8 8
1 2 4 4 4 5 5 6 8 9 8 8 7 4 4 4 4 5 6 7 6 6 7 6 6 6 6 6 5 5 5 5 5 5 5 6 7 7 8 8 9 9 9 8
Wind_Direction
267 252 260 273 285 274 251 244 255 299 284 71 227 132 169 296 318 348 51 65 69 88 96 98 106 137 209 234 243 248 251 250 253 254 252 253 255 251 248 245 243 244 244 244
281 272 212 270 276 275 243 255 281 263 256 286 113 128 135 260 339 342 60 57 67 73 83 81 82 78 101 183 225 239 254 262 258 258 260 259 259 260 260 258 255 250 246 247
247 319 328 289 16 332 224 231 272 281 291 182 127 155 150 290 359 65 53 53 52 64 71 72 72 71 70 70 61 214 237 262 271 271 268 264 264 265 264 264 265 262 261 258
253 326 255 250 346 43 49 2 283 250 129 106 98 80 72 78 83 76 71 68 60 64 73 74 71 67 75 69 61 89 183 226 237 238 243 253 261 266 267 269 267 268 270 269
195 215 285 299 9 36 330 295 294 114 133 122 126 100 59 72 86 78 73 68 63 62 62 66 68 61 61 75 85 91 102 159 253 265 273 262 251 255 263 267 272 270 270 267
163 248 265 230 28 339 301 281 129 121 158 224 196 99 99 69 77 71 58 60 62 62 62 63 61 53 48 55 52 52 53 55 55 6 268 275 270 259 255 250 256 264 269 267
228 240 279 305 324 328 212 319 47 111 141 232 58 91 110 77 59 57 49 50 58 55 55 55 52 48 42 40 40 41 42 38 34 29 23 12 343 302 290 283 274 265 250 243
187 212 254 351 350 6 98 44 58 68 87 100 99 99 91 75 61 59 55 53 47 46 48 46 45 42 42 39 39 23 20 18 25 26 18 5 356 347 324 303 308 299 261 244
194 213 81 61 72 60 70 69 47 51 69 94 95 90 87 74 58 50 45 43 37 33 34 37 36 36 37 38 30 19 10 14 14 19 21 24 25 18 4 349 341 342 306 271
158 132 104 79 66 66 63 67 68 60 67 68 81 79 64 45 38 37 37 35 32 28 29 32 35 32 29 23 19 11 11 7 21 21 23 29 33 31 25 21 22 25 22 7
22 50 51 51 55 72 75 53 63 56 54 61 53 58 53 42 35 37 39 36 29 24 23 23 21 21 18 9 356 351 354 10 15 41 31 23 37 37 30 24 21 30 40 42
360 328 62 48 52 64 65 58 53 45 35 24 22 29 23 28 29 37 44 45 42 39 34 26 21 15 14 10 6 0 7 28 41 52 60 58 65 68 63 64 70 83 82 77
353 67 84 65 64 53 58 51 48 43 38 23 17 18 21 24 28 32 43 49 45 44 43 39 32 24 23 21 16 11 19 41 57 75 88 89 92 93 91 93 97 93 89 91
34 180 37 45 51 49 44 31 17 20 18 15 14 9 18 37 47 50 52 54 49 42 43 43 38 39 35 30 29 36 49 69 96 108 109 112 112 108 108 105 97 91 90 88
28 45 57 41 13 17 9 355 352 13 13 17 22 31 29 42 50 55 57 60 55 57 58 53 52 48 39 32 31 46 61 76 86 98 103 106 108 107 104 101 96 92 92 87
343 3 20 19 13 9 -0 355 17 31 22 14 28 40 39 52 66 70 70 68 61 56 54 50 51 50 42 40 42 53 68 80 94 100 104 107 109 107 104 100 97 91 83 74
302 10 11 12 12 8 6 2 4 6 5 23 21 21 29 60 75 76 68 62 59 59 55 57 52 48 46 44 47 61 76 93 99 103 104 105 105 103 97 94 89 87 82 73
19 46 42 327 17 12 4 7 2 357 10 18 4 359 38 73 71 66 60 54 52 56 56 55 54 46 51 55 54 62 76 90 102 104 104 106 102 95 89 83 81 77 78 75
95 101 99 118 56 347 349 29 48 65 69 56 13 83 77 68 57 48 40 25 40 47 49 44 44 41 45 51 44 53 68 82 96 106 110 106 109 105 94 84 72 63 61 62
90 88 132 140 131 103 99 94 97 100 92 84 82 85 81 71 53 35 28 34 44 38 24 17 13 5 13 22 26 26 40 57 70 82 87 86 88 84 77 72 72 75 73 69
80 79 80 85 92 91 87 82 81 82 73 60 51 56 49 44 33 25 24 32 41 33 22 16 17 26 25 26 25 23 24 41 67 77 79 76 69 76 79 79 75 73 71 66
87 88 85 86 97 99 93 87 75 68 63 48 36 33 28 32 34 24 30 37 28 19 11 14 23 33 37 38 37 44 55 59 67 72 75 75 67 61 56 54 50 52 46 36
96 97 100 99 96 94 91 77 57 37 19 16 16 20 15 9 5 14 8 19 13 12 14 17 27 33 39 42 48 51 56 59 62 64 62 53 38 34 34 25 18 10 1 354
101 101 101 98 88 77 64 64 48 30 15 8 354 350 344 344 338 349 1 4 357 9 6 14 17 22 29 30 36 42 47 49 49 44 30 18 3 359 0 358 349 335 327 324
111 107 99 87 74 52 21 18 16 12 9 5 357 345 343 340 333 3 9 6 11 5 353 4 18 17 15 15 15 11 10 12 13 15 7 350 340 332 320 313 310 311 313 310
70 349 317 303 304 295 299 291 304 321 330 341 348 351 3 5 17 8 10 2 358 2 358 1 9 5 358 360 2 353 343 336 334 334 331 320 311 308 308 305 301 300 303 306
238 249 251 271 295 314 316 270 259 285 296 313 328 333 350 353 351 352 355 353 347 342 348 359 7 5 1 355 350 334 328 317 308 305 305 304 303 300 298 298 301 304 303 302